| time (UTC) | temp F | wind direction | speed MPH | gust MPH | rain 1hr in | rain 24hr in | rain mn in | humidity % | barometer mb |
| 20260508133102 | 43 | 51 | 0.0 | 2.0 | 0.00 | 0.01 | 0.00 | 76 | 1019.7 |
| 20260508131544 | 42 | 51 | 0.0 | 1.0 | 0.00 | 0.01 | 0.00 | 74 | 1019.6 |
| 20260508130043 | 42 | 51 | 0.0 | 0.0 | 0.00 | 0.01 | 0.00 | 76 | 1019.4 |
| 20260508124541 | 41 | 51 | 0.0 | 0.0 | 0.00 | 0.01 | 0.00 | 72 | 1019.3 |
| 20260508123041 | 41 | 51 | 0.0 | 0.0 | 0.00 | 0.01 | 0.00 | 71 | 1019.2 |
| 20260508121538 | 40 | 51 | 0.0 | 0.0 | 0.00 | 0.01 | 0.00 | 75 | 1019.0 |
| 20260508120040 | 40 | 51 | 0.0 | 0.0 | 0.00 | 0.01 | 0.00 | 76 | 1018.9 |
| 20260508114535 | 39 | 51 | 0.0 | 0.0 | 0.00 | 0.09 | 0.00 | 77 | 1018.8 |
| 20260508113037 | 39 | 51 | 0.0 | 0.0 | 0.00 | 0.09 | 0.00 | 77 | 1018.4 |
| 20260508111530 | 39 | 51 | 0.0 | 0.0 | 0.00 | 0.09 | 0.00 | 78 | 1018.2 |
| 20260508110028 | 39 | 51 | 0.0 | 0.0 | 0.00 | 0.09 | 0.00 | 81 | 1017.9 |
| 20260508104526 | 39 | 51 | 0.0 | 0.0 | 0.00 | 0.19 | 0.00 | 81 | 1017.7 |
| 20260508103027 | 39 | 51 | 0.0 | 0.0 | 0.00 | 0.19 | 0.00 | 81 | 1017.5 |
| 20260508101525 | 39 | 51 | 0.0 | 0.0 | 0.00 | 0.19 | 0.00 | 82 | 1017.3 |
| 20260508100021 | 39 | 51 | 0.0 | 0.0 | 0.00 | 0.19 | 0.00 | 82 | 1017.2 |
| 20260508094519 | 39 | 51 | 0.0 | 0.0 | 0.00 | 0.19 | 0.00 | 81 | 1017.1 |
| 20260508093018 | 39 | 51 | 0.0 | 0.0 | 0.00 | 0.19 | 0.00 | 81 | 1016.9 |
| 20260508091528 | 39 | 51 | 0.0 | 1.0 | 0.00 | 0.19 | 0.00 | 81 | 1016.8 |
| 20260508090016 | 40 | 51 | 0.0 | 1.0 | 0.00 | 0.19 | 0.00 | 81 | 1016.8 |
| 20260508084513 | 40 | 51 | 0.0 | 1.0 | 0.00 | 0.19 | 0.00 | 82 | 1016.7 |
| 20260508083022 | 40 | 51 | 0.0 | 0.0 | 0.00 | 0.19 | 0.00 | 81 | 1016.6 |
| 20260508081510 | 41 | 51 | 0.0 | 0.0 | 0.00 | 0.19 | 0.00 | 81 | 1016.5 |
| 20260508080006 | 41 | 51 | 0.0 | 1.0 | 0.00 | 0.19 | 0.00 | 81 | 1016.5 |
| 20260508074506 | 41 | 51 | 0.0 | 1.0 | 0.00 | 0.19 | 0.00 | 81 | 1016.3 |
| 20260508073003 | 41 | 51 | 0.0 | 0.0 | 0.00 | 0.19 | 0.00 | 81 | 1016.5 |
| 20260508071503 | 42 | 51 | 0.0 | 0.0 | 0.00 | 0.19 | 0.00 | 81 | 1016.4 |
| 20260508064559 | 42 | 51 | 0.0 | 0.0 | 0.00 | 0.20 | 0.00 | 80 | 1016.3 |
| 20260508063138 | 43 | 51 | 0.0 | 1.0 | 0.00 | 0.20 | 0.00 | 80 | 1016.3 |
| 20260508061556 | 43 | 51 | 0.0 | 1.0 | 0.00 | 0.20 | 0.00 | 80 | 1016.4 |
| 20260508060057 | 43 | 51 | 0.0 | 2.0 | 0.00 | 0.20 | 0.00 | 80 | 1016.4 |
| 20260508054554 | 43 | 51 | 0.0 | 1.0 | 0.00 | 0.21 | 0.00 | 79 | 1016.1 |
| 20260508053059 | 43 | 51 | 1.0 | 2.0 | 0.00 | 0.21 | 0.00 | 78 | 1016.1 |
| 20260508051616 | 43 | 51 | 0.0 | 2.0 | 0.00 | 0.21 | 0.00 | 79 | 1016.2 |
| 20260508050051 | 43 | 51 | 0.0 | 2.0 | 0.00 | 0.21 | 0.00 | 79 | 1016.1 |
| 20260508044549 | 43 | 51 | 0.0 | 0.0 | 0.00 | 0.28 | 0.00 | 78 | 1016.0 |
| 20260508043048 | 43 | 51 | 0.0 | 0.0 | 0.00 | 0.28 | 0.00 | 78 | 1016.0 |
| 20260508041546 | 43 | 51 | 0.0 | 1.0 | 0.00 | 0.28 | 0.00 | 78 | 1015.8 |
| 20260508040043 | 43 | 51 | 0.0 | 0.0 | 0.00 | 0.28 | 0.00 | 80 | 1015.8 |
| 20260508034542 | 43 | 51 | 0.0 | 0.0 | 0.00 | 0.43 | 0.28 | 80 | 1015.9 |
| 20260508033048 | 43 | 51 | 0.0 | 1.0 | 0.00 | 0.43 | 0.28 | 81 | 1016.0 |
| 20260508031539 | 44 | 51 | 0.0 | 0.0 | 0.00 | 0.43 | 0.28 | 82 | 1015.9 |
| 20260508030044 | 44 | 51 | 0.0 | 1.0 | 0.00 | 0.43 | 0.28 | 82 | 1015.9 |
| 20260508024536 | 44 | 51 | 0.0 | 2.0 | 0.00 | 0.43 | 0.28 | 82 | 1015.8 |
| 20260508023036 | 44 | 51 | 0.0 | 0.0 | 0.00 | 0.43 | 0.28 | 82 | 1015.6 |
| 20260508021536 | 44 | 51 | 0.0 | 1.0 | 0.00 | 0.43 | 0.28 | 81 | 1015.1 |
| 20260508020031 | 44 | 51 | 0.0 | 0.0 | 0.00 | 0.43 | 0.28 | 80 | 1014.8 |
| 20260508014530 | 44 | 51 | 0.0 | 2.0 | 0.00 | 0.46 | 0.28 | 82 | 1014.6 |
| 20260508013029 | 44 | 51 | 0.0 | 0.0 | 0.00 | 0.46 | 0.28 | 81 | 1014.3 |
| 20260508011532 | 44 | 51 | 0.0 | 0.0 | 0.00 | 0.46 | 0.28 | 81 | 1014.1 |
| 20260508010037 | 45 | 51 | 0.0 | 1.0 | 0.00 | 0.46 | 0.28 | 81 | 1013.9 |
| 20260508004523 | 45 | 51 | 0.0 | 1.0 | 0.00 | 0.51 | 0.28 | 81 | 1013.8 |
| 20260508003022 | 46 | 51 | 0.0 | 2.0 | 0.00 | 0.51 | 0.28 | 80 | 1013.5 |
| 20260508001520 | 46 | 51 | 0.0 | 0.0 | 0.00 | 0.51 | 0.28 | 81 | 1013.5 |
| 20260508000019 | 47 | 51 | 0.0 | 2.0 | 0.00 | 0.51 | 0.28 | 81 | 1013.1 |
| 20260507234519 | 47 | 51 | 0.0 | 2.0 | 0.00 | 0.59 | 0.28 | 81 | 1013.0 |
| 20260507233017 | 47 | 51 | 0.0 | 3.0 | 0.00 | 0.59 | 0.28 | 81 | 1012.9 |
| 20260507231518 | 47 | 53 | 0.0 | 2.0 | 0.00 | 0.59 | 0.28 | 82 | 1013.0 |
| 20260507230026 | 47 | 50 | 1.0 | 3.0 | 0.00 | 0.59 | 0.28 | 82 | 1012.9 |
| 20260507224514 | 48 | 42 | 1.0 | 2.0 | 0.00 | 0.59 | 0.28 | 82 | 1012.8 |
| 20260507223016 | 47 | 42 | 1.0 | 2.0 | 0.00 | 0.59 | 0.28 | 82 | 1012.8 |
| 20260507221511 | 48 | 41 | 1.0 | 2.0 | 0.00 | 0.59 | 0.28 | 82 | 1012.5 |
| 20260507220009 | 48 | 41 | 1.0 | 3.0 | 0.00 | 0.59 | 0.28 | 82 | 1012.1 |
| 20260507214507 | 49 | 42 | 1.0 | 3.0 | 0.00 | 0.69 | 0.28 | 80 | 1011.9 |
| 20260507213004 | 51 | 38 | 1.0 | 2.0 | 0.00 | 0.69 | 0.28 | 78 | 1011.8 |
| 20260507211601 | 54 | 36 | 1.0 | 3.0 | 0.00 | 0.69 | 0.28 | 77 | 1011.3 |
| 20260507210104 | 55 | 42 | 1.0 | 3.0 | 0.00 | 0.69 | 0.28 | 77 | 1011.0 |
| 20260507204559 | 55 | 38 | 1.0 | 4.0 | 0.00 | 0.72 | 0.28 | 77 | 1010.8 |
| 20260507203101 | 56 | 46 | 1.0 | 3.0 | 0.00 | 0.72 | 0.28 | 79 | 1010.9 |
| 20260507201619 | 54 | 43 | 1.0 | 3.0 | 0.00 | 0.72 | 0.28 | 80 | 1011.1 |
| 20260507200109 | 54 | 40 | 2.0 | 3.0 | 0.00 | 0.72 | 0.28 | 78 | 1011.2 |
| 20260507194557 | 55 | 40 | 1.0 | 3.0 | 0.00 | 0.72 | 0.28 | 79 | 1010.9 |
| 20260507193055 | 55 | 32 | 1.0 | 4.0 | 0.00 | 0.72 | 0.28 | 80 | 1010.8 |
| 20260507191555 | 56 | 42 | 1.0 | 3.0 | 0.00 | 0.72 | 0.28 | 79 | 1010.9 |
| 20260507190054 | 56 | 43 | 1.0 | 2.0 | 0.00 | 0.72 | 0.28 | 78 | 1010.9 |
| 20260507184554 | 56 | 34 | 1.0 | 3.0 | 0.00 | 0.72 | 0.28 | 80 | 1010.9 |
| 20260507183056 | 56 | 42 | 1.0 | 3.0 | 0.00 | 0.72 | 0.28 | 81 | 1011.1 |
| 20260507181554 | 55 | 17 | 1.0 | 3.0 | 0.00 | 0.72 | 0.28 | 81 | 1011.3 |
| 20260507180052 | 54 | 13 | 1.0 | 5.0 | 0.00 | 0.72 | 0.28 | 81 | 1011.4 |
| 20260507174557 | 55 | 41 | 1.0 | 3.0 | 0.00 | 0.72 | 0.28 | 81 | 1011.3 |
| 20260507173057 | 55 | 27 | 1.0 | 4.0 | 0.00 | 0.72 | 0.28 | 82 | 1011.3 |
| 20260507171559 | 54 | 43 | 1.0 | 4.0 | 0.00 | 0.72 | 0.28 | 83 | 1011.1 |
| 20260507170050 | 54 | 44 | 1.0 | 4.0 | 0.00 | 0.72 | 0.28 | 84 | 1011.3 |
| 20260507164549 | 53 | 37 | 2.0 | 4.0 | 0.00 | 0.73 | 0.28 | 84 | 1011.0 |
| 20260507163047 | 53 | 55 | 2.0 | 4.0 | 0.00 | 0.73 | 0.28 | 83 | 1010.7 |
| 20260507161553 | 54 | 28 | 2.0 | 3.0 | 0.00 | 0.73 | 0.28 | 84 | 1010.9 |
| 20260507160046 | 55 | 320 | 1.0 | 3.0 | 0.00 | 0.73 | 0.28 | 84 | 1011.2 |
| 20260507154547 | 56 | 242 | 1.0 | 3.0 | 0.00 | 0.97 | 0.28 | 84 | 1011.2 |
| 20260507153106 | 56 | 218 | 1.0 | 3.0 | 0.00 | 0.97 | 0.28 | 83 | 1011.0 |
| 20260507151546 | 57 | 215 | 1.0 | 3.0 | 0.00 | 0.97 | 0.28 | 85 | 1011.0 |
| 20260507150050 | 56 | 201 | 0.0 | 2.0 | 0.00 | 0.97 | 0.28 | 85 | 1011.1 |
| 20260507144540 | 56 | 201 | 0.0 | 2.0 | 0.00 | 1.09 | 0.28 | 85 | 1010.9 |
| 20260507143037 | 55 | 201 | 1.0 | 3.0 | 0.00 | 1.09 | 0.28 | 85 | 1010.8 |
| 20260507141536 | 55 | 202 | 0.0 | 2.0 | 0.00 | 1.09 | 0.28 | 86 | 1010.9 |
| 20260507140036 | 55 | 184 | 0.0 | 2.0 | 0.01 | 1.09 | 0.28 | 86 | 1011.2 |
| 20260507134535 | 54 | 184 | 0.0 | 1.0 | 0.01 | 1.09 | 0.28 | 86 | 1011.0 |